This is the latest recevied weather packets stored in our database for station/object DO7CRZ-12. If no packets are shown the sender has not sent any weather packets the latest 10 day(s).
| Time | Temp. | Humidity | Pressure | Rain* | Wind** | Luminosity | Snow |
|---|---|---|---|---|---|---|---|
| 1777905447 | 28.33° C | 26% | 1011.4 hPa | 0 mm | - | 102 W/m² | - |
| 1777904845 | 28.33° C | 27% | 1011.6 hPa | 0 mm | - | 164 W/m² | - |
| 1777904241 | 27.78° C | 24% | 1011.6 hPa | 0 mm | - | 243 W/m² | - |
| 1777903639 | 27.78° C | 23% | 1011.6 hPa | 0 mm | - | 273 W/m² | - |
| 1777903036 | 28.89° C | 25% | 1011.6 hPa | 0 mm | - | 268 W/m² | - |
| 1777902448 | 28.89° C | 27% | 1011.8 hPa | 0 mm | - | 301 W/m² | - |
| 1777901845 | 27.22° C | 25% | 1011.8 hPa | 0 mm | - | 334 W/m² | - |
| 1777901243 | 27.22° C | 25% | 1011.8 hPa | 0 mm | - | 331 W/m² | - |
| 1777900640 | 28.89° C | 26% | 1012 hPa | 0 mm | - | 171 W/m² | - |
| 1777900036 | 30° C | 24% | 1012.1 hPa | 0 mm | - | 327 W/m² | - |
| 1777899449 | 30° C | 24% | 1012.1 hPa | 0 mm | - | 332 W/m² | - |
| 1777898846 | 29.44° C | 24% | 1012.3 hPa | 0 mm | - | 331 W/m² | - |
| 1777898243 | 31.11° C | 22% | 1012.3 hPa | 0 mm | - | 489 W/m² | - |
| 1777897641 | 30° C | 24% | 1012.3 hPa | 0 mm | - | 514 W/m² | - |
| 1777897038 | 29.44° C | 24% | 1012.4 hPa | 0 mm | - | 434 W/m² | - |
| 1777896450 | 31.11° C | 23% | 1012.5 hPa | 0 mm | - | 352 W/m² | - |
| 1777895847 | 30° C | 23% | 1012.4 hPa | 0 mm | - | 409 W/m² | - |
| 1777895244 | 30.56° C | 23% | 1012.5 hPa | 0 mm | - | 614 W/m² | - |
| 1777894641 | 30° C | 24% | 1012.5 hPa | 0 mm | - | 519 W/m² | - |
| 1777894038 | 28.89° C | 26% | 1012.8 hPa | 0 mm | - | 597 W/m² | - |
| 1777893436 | 26.67° C | 24% | 1012.9 hPa | 0 mm | - | 337 W/m² | - |
| 1777891642 | 28.33° C | 26% | 1013.1 hPa | 0 mm | - | 451 W/m² | - |
| 1777891040 | 30.56° C | 23% | 1013.2 hPa | 0 mm | - | 399 W/m² | - |
| 1777890437 | 30° C | 24% | 1013.4 hPa | 0 mm | - | 685 W/m² | - |
| 1777889849 | 27.78° C | 24% | 1013.5 hPa | 0 mm | - | 502 W/m² | - |
* Rain latest hour (hover to see other rain measurements)
** Current wind speed in m/s (hover to see current wind gust speed)